Tracking 27097 objects as of 29-Mar-2023
HD Live streaming from Space Station
objects crossing your sky now

AISTECHSAT-3

Track AISTECHSAT-3 now!
10-day predictions
AISTECHSAT-3 is classified as:


NORAD ID: 44103
Int'l Code: 2019-018AB
Perigee: 456.8 km
Apogee: 470.6 km
Inclination: 97.3 °
Period: 93.7 minutes
Semi major axis: 6834 km
RCS: Unknown
Launch date: April 1, 2019
Source: Spain (SPN)
Launch site: SRIHARIKOTA (SRI)

Uplink (MHz):
Downlink (MHz): 436.730
Beacon (MHz):
Mode: 4k8/9k6 GFSK
Call sign:
Status: Active

Your satellite tracking list
Your tracking list is empty




NASA's NSSDC Master Catalog

Two Line Element Set (TLE):
1 44103U 19018AB  23086.23580876  .00041660  00000-0  11663-2 0  9995
2 44103  97.2648 145.4824 0010071 198.8124 232.5741 15.36469840221904
Source of the keplerian elements: AMSAT